Weather in Tsakhur

Russia / Republic of Dagestan     41°39′04″N   47°08′09″E
temp.,
°C
wind,
m/s
gust,
m/s
humid.,
%
clouds,
%
prec.,
mm/h
press.,
hPa
HPBL,
m
23 april, fri
fri2300:00+3w229028 0.5 101826
03:00+1wsw32918 0.6 101833
06:000w22924 0.1 101944
09:00+3sw367912 0.3 1018602
12:00+4sw5127010 0.6 10191605
15:00+4sw513582 0.9 10201777
18:00+2sw347195 0.0 1022266
21:00−1w33969 0.0 102464
24 april, sat
sat2400:00−2w32750 0.0 102445
03:00−2w33735 0.0 102369
06:00−1wsw33758 0.0 1021115
09:00+5sw44585 0.0 1018496
12:00+8sw49471 0.0 10161312
15:00+9sw48410 0.0 10161407
18:00+5sw33620 0.0 101874
21:00+2w22690 0.0 102011
25 april, sun
sun2500:00+2wsw22651 0.0 102014
03:00+1w22755 0.0 102113
06:00+3w22725 0.0 102051
09:00+8sw445488 0.0 1018733
12:00+10sw411448 0.0 10161828
15:00+10sw410425 0.0 10161836
18:00+7sw336941 0.0 1016168
21:00+4w228997 0.0 101818
26 april, mon
mon2600:00+3wsw337895 0.0 101729
03:00+3wsw4367100 0.0 101542
06:00+5wsw3364100 0.0 101450
09:00+11sw61244100 0.0 10121989
12:00+12sw613429 0.0 10112241
15:00+12sw6154210 0.0 10092063
18:00+9sw456125 0.0 1009211
21:00+6wsw32735 0.0 101127
27 april, tue
tue2700:00+4wsw33851 0.0 101132
03:00+3wnw229827 0.0 101224
06:00+4wsw1288100 0.6 101278
09:00+7wsw2378100 3.2 1011356
12:00+8ssw4683100 2.0 1010954
15:00+6sw448921 5.4 1011391
18:00+4sw4498100 1.1 1012510
21:00+3sw4496100 1.8 1015679